This is the latest recevied weather packets stored in our database for station/object N6ZHV-13. If no packets are shown the sender has not sent any weather packets the latest 10 day(s).
| Time | Temp. | Humidity | Pressure | Rain* | Wind** | Luminosity | Snow |
|---|---|---|---|---|---|---|---|
| 1788389825 | 25.56° C | 50% | 1009.7 hPa | 0 mm | - | - | - |
| 1788389525 | 25.56° C | 51% | 1009.7 hPa | 0 mm | - | - | - |
| 1788389225 | 25.56° C | 52% | 1009.8 hPa | 0 mm | - | - | - |
| 1788388925 | 25° C | 51% | 1009.8 hPa | 0 mm | - | - | - |
| 1788388625 | 25.56° C | 51% | 1010 hPa | 0 mm | - | - | - |
| 1788388325 | 25.56° C | 51% | 1010.1 hPa | 0 mm | - | - | - |
| 1788388025 | 26.11° C | 50% | 1010.2 hPa | 0 mm | - | - | - |
| 1788387725 | 25.56° C | 52% | 1010.3 hPa | 0 mm | - | - | - |
| 1788387425 | 25.56° C | 53% | 1010.3 hPa | 0 mm | - | - | - |
| 1788387125 | 25.56° C | 54% | 1010.3 hPa | 0 mm | - | - | - |
| 1788386825 | 25.56° C | 53% | 1010.4 hPa | 0 mm | - | - | - |
| 1788386525 | 26.11° C | 52% | 1010.4 hPa | 0 mm | - | - | - |
| 1788386225 | 25.56° C | 51% | 1010.5 hPa | 0 mm | - | - | - |
| 1788385925 | 26.11° C | 52% | 1010.6 hPa | 0 mm | - | - | - |
| 1788385625 | 26.11° C | 50% | 1010.6 hPa | 0 mm | - | - | - |
| 1788385325 | 26.11° C | 51% | 1010.7 hPa | 0 mm | - | - | - |
| 1788385025 | 26.11° C | 51% | 1010.7 hPa | 0 mm | - | - | - |
| 1788384725 | 26.11° C | 51% | 1010.7 hPa | 0 mm | - | - | - |
| 1788384425 | 26.11° C | 51% | 1010.8 hPa | 0 mm | - | - | - |
| 1788384125 | 26.11° C | 53% | 1010.8 hPa | 0 mm | - | - | - |
| 1788383825 | 26.11° C | 51% | 1010.8 hPa | 0 mm | - | - | - |
| 1788383525 | 26.67° C | 51% | 1010.7 hPa | 0 mm | - | - | - |
| 1788383225 | 26.67° C | 46% | 1010.8 hPa | 0 mm | - | - | - |
| 1788382925 | 26.67° C | 43% | 1010.8 hPa | 0 mm | - | - | - |
| 1788382625 | 26.67° C | 44% | 1010.9 hPa | 0 mm | - | - | - |
* Rain latest hour (hover to see other rain measurements)
** Current wind speed in m/s (hover to see current wind gust speed)